Terminal Aerodrome Forecast
Issued by NWS Norman, OK

Home | Current Version | Previous Version | Text Only | Print | Product List | Glossary On
Versions: 1 2 3 4 5 6 7 8 9 10 11 12 13 14 15 16 17 18 19 20 21 22 23 24 25 26 27 28
000
FTUS44 KOUN 232325
TAFOKC
TAF
KOKC 232325Z 2400/2424 07008KT P6SM SCT060 BKN150 BKN250
     FM240200 VRB04KT P6SM SCT150 BKN250
     FM241600 13007KT P6SM SKC=

USA.gov is the U.S. government's official web portal to all federal, state and local government web resources and services.